Regional Weather Roundup
Issued by NWS

Home | Current Version | Previous Version | Text Only | Print | Product List | Glossary Off
Versions: 1 2 3 4 5 6 7 8 9 10 11 12 13 14 15 16 17 18 19 20 21 22 23 24 25 26 27 28 29 30 31 32 33 34 35 36 37 38 39 40 41 42 43 44 45 46 47 48 49 50

000
ASUS44 KMEG 211800
RWRTN
TENNESSEE HOURLY STATE WEATHER ROUNDUP
NATIONAL WEATHER SERVICE MEMPHIS TN
1200 PM CST FRI NOV 21 2014

TNZ002-004-019-021-049-052-054-088>092-211900-
WEST TENNESSEE

CITY           SKY/WX    TMP DP  RH WIND       PRES   REMARKS
MEMPHIS INTL   PTSUNNY   52  41  66 SE8       30.32F
NWS MEMPHIS      N/A     51 N/A N/A MISG        N/A
JACKSON        CLOUDY    50  28  42 SE8       30.36F
DYERSBURG      CLOUDY    46  21  36 E9        30.37F
UNION CITY     PTSUNNY   45  25  45 E9        30.36F
PARIS            N/A     45  23  42 SE8       30.38F
LEXINGTON      CLOUDY    52  27  37 SE6       30.37F
SAVANNAH       PTSUNNY   55  28  35 NE6       30.36F
$$

TNZ008-025-027-028-033-062-065-066-211900-
NORTH MIDDLE TENNESSEE

CITY           SKY/WX    TMP DP  RH WIND       PRES   REMARKS
NASHVILLE      SUNNY     47  21  35 E3        30.44F
CLARKSVILLE    SUNNY     45  22  40 E12       30.43F
COOKEVILLE     SUNNY     48  19  32 CALM      30.40F
CROSSVILLE     SUNNY     48  10  21 E7        30.40F
$$

TNZ061-075-076-078-094-096-097-211900-
SOUTH MIDDLE TENNESSEE

CITY           SKY/WX    TMP DP  RH WIND       PRES   REMARKS
TULLAHOMA      SUNNY     52  19  28 E6        30.40F
WINCHESTER     SUNNY     55  27  33 CALM      30.39F
SHELBYVILLE    SUNNY     52  25  35 CALM      30.42F
$$

TNZ017-018-042-046-047-211900-
NORTHEAST TENNESSEE

CITY           SKY/WX    TMP DP  RH WIND       PRES   REMARKS
TRI CITIES     SUNNY     41  16  36 SW3       30.45S
ELIZABETHTON   CLEAR     41  12  30 NW6       30.43F
$$

TNZ012-013-036-069-073-074-211900-
CENTRAL EAST TENNESSEE

CITY           SKY/WX    TMP DP  RH WIND       PRES   REMARKS
KNOXVILLE      SUNNY     47  18  31 NE8       30.44F
OAK RIDGE      SUNNY     47  16  29 VRB6      30.46F
$$

TNZ083-085-099-211900-
SOUTHEAST TENNESSEE

CITY           SKY/WX    TMP DP  RH WIND       PRES   REMARKS
CHATTANOOGA    MOSUNNY   51  22  31 N6        30.43F
$$

SKY/WX REPORTED AS FAIR MEANS FEW OR NO CLOUDS BELOW
12 THOUSAND FEET.



USA.gov is the U.S. government's official web portal to all federal, state and local government web resources and services.